Location: St Paul
(33.9360°N, 83.4200°W)
Time: 09:42:35
(UTC-04:00)

COSMOS 2487 - Pass Details

Date: 06 October 2017
Orbit: 456 x 461 km, 74.7° (Epoch: 23 October)

Event Time Altitude Azimuth Distance (km) Brightness Sun altitude
Rises 20:06:38 0° 212° (SSW) 2,468 6.6 -12.4°
Reaches altitude 10° 20:08:49 10° 220° (SW) 1,599 5.7 -12.9°
Maximum altitude 20:12:06 36° 289° (WNW) 740 4.1 -13.5°
Drops below altitude 10° 20:15:25 10° 358° (N) 1,613 5.3 -14.2°
Sets 20:17:38 0° 7° (N) 2,493 6.1 -14.7°
